Date String (YYYY-MM-DD hh:mm:ss) UTC,Instrument flags,Ambient pressure (hPa),Sample flow (lpm),Bypass flow (lpm),Sample temperature (°C),Ambient temperature (°C),ASC tube jacket temperature (°C),LED temperature (°C),Box temperature (°C),Sample RH (%),Span deviation,Mass concentration (μg/m³),Mass concentration (μg/m³),Mass concentration (μg/m³)
DateTimeUTC,F1_M11,P_M11,Q1_M11,Q2_M11,T1_M11,T2_M11,T3_M11,T4_M11,T5_M11,U1_M11,ZSPAN_M11,X0_M11,X2_M11,X1_M11
2021-09-27 04:00:00,,0826.1,5.01,0.00,29.2,27.6,00.0,38.3,30.9,11.2,0003.0,0014.03,0006.69,0005.53
2021-09-27 04:01:00,,0826.1,4.99,0.00,29.2,27.8,00.0,38.3,31.0,11.2,0003.2,0014.04,0006.70,0005.53
2021-09-27 04:02:00,,0826.1,5.02,0.00,29.3,28.0,00.0,38.4,31.1,11.1,0003.2,0015.07,0006.73,0005.54
2021-09-27 04:03:00,,0826.1,4.99,0.00,29.3,28.1,00.0,38.4,31.1,11.1,0003.5,0015.33,0006.77,0005.53
2021-09-27 04:04:00,,0826.1,4.99,0.00,29.3,28.2,00.0,38.4,31.1,11.1,0003.3,0015.72,0006.73,0005.53
2021-09-27 04:05:00,,0826.1,5.00,0.00,29.4,28.3,00.0,38.4,31.2,11.0,0002.9,0015.84,0006.70,0005.54
2021-09-27 04:06:00,,0826.2,5.01,0.00,29.4,28.4,00.0,38.4,31.2,11.0,0003.0,0016.20,0006.69,0005.52
2021-09-27 04:07:00,,0826.2,4.98,0.00,29.4,28.5,00.0,38.4,31.3,11.0,0003.0,0016.38,0006.72,0005.52
2021-09-27 04:08:00,,0826.2,5.02,0.00,29.5,28.5,00.0,38.4,31.3,11.0,0002.7,0015.90,0006.71,0005.53
2021-09-27 04:09:00,,0826.2,4.99,0.00,29.5,28.6,00.0,38.5,31.3,10.9,0002.8,0015.67,0006.70,0005.54
2021-09-27 04:10:00,,0826.2,5.00,0.00,29.6,28.6,00.0,38.5,31.4,10.9,0002.6,0015.79,0006.70,0005.53
2021-09-27 04:11:00,,0826.2,5.01,0.00,29.6,28.7,00.0,38.5,31.4,10.9,0002.3,0015.75,0006.68,0005.53
2021-09-27 04:12:00,,0826.2,5.01,0.00,29.6,28.8,00.0,38.5,31.4,10.9,0001.9,0016.14,0006.65,0005.51
2021-09-27 04:13:00,,0826.2,5.00,0.00,29.7,28.8,00.0,38.6,31.5,10.9,0002.1,0015.41,0006.61,0005.50
2021-09-27 04:14:00,,0826.2,4.99,0.00,29.7,28.8,00.0,38.6,31.5,10.9,0001.9,0016.70,0006.59,0005.48
2021-09-27 04:15:00,,0826.2,5.01,0.00,29.7,27.8,00.0,38.6,31.3,10.9,0001.8,0016.12,0006.55,0005.46
2021-09-27 04:16:00,,0826.2,5.01,0.00,29.5,26.3,00.0,38.6,30.9,10.9,0001.6,0016.05,0006.48,0005.43
2021-09-27 04:17:00,,0826.2,4.99,0.00,29.5,26.3,00.0,38.6,30.9,11.0,0001.4,0016.13,0006.46,0005.42
2021-09-27 04:18:00,,0826.1,5.00,0.00,29.4,26.7,00.0,38.5,30.9,11.0,0001.5,0015.59,0006.40,0005.39
2021-09-27 04:19:00,,0826.1,5.00,0.00,29.3,27.0,00.0,38.5,31.0,11.0,0001.5,0015.52,0006.39,0005.35
2021-09-27 04:20:00,,0826.1,5.00,0.00,29.4,27.4,00.0,38.5,31.0,11.0,0001.6,0015.60,0006.41,0005.32
2021-09-27 04:21:00,,0826.2,5.00,0.00,29.4,27.7,00.0,38.5,31.1,11.0,0001.5,0015.40,0006.40,0005.28
2021-09-27 04:22:00,,0826.2,5.00,0.00,29.4,27.9,00.0,38.5,31.1,11.0,0001.7,0014.97,0006.36,0005.26
2021-09-27 04:23:00,,0826.2,5.01,0.00,29.4,28.1,00.0,38.5,31.2,11.0,0002.0,0013.85,0006.31,0005.25
2021-09-27 04:24:00,,0826.2,5.00,0.00,29.4,28.2,00.0,38.5,31.2,11.0,0001.7,0013.75,0006.26,0005.23
2021-09-27 04:25:00,,0826.2,5.00,0.00,29.5,28.3,00.0,38.5,31.3,11.0,0001.8,0012.92,0006.22,0005.22
2021-09-27 04:26:00,,0826.3,5.01,0.00,29.5,28.4,00.0,38.5,31.3,10.9,0001.9,0014.41,0006.20,0005.22
2021-09-27 04:27:00,,0826.2,5.00,0.00,29.6,28.5,00.0,38.5,31.4,10.9,0002.1,0014.50,0006.22,0005.23
2021-09-27 04:28:00,,0826.2,5.00,0.00,29.6,28.6,00.0,38.6,31.4,10.9,0001.9,0014.32,0006.25,0005.25
2021-09-27 04:29:00,,0826.2,5.00,0.00,29.6,28.7,00.0,38.6,31.4,10.8,0001.8,0014.74,0006.24,0005.25
2021-09-27 04:30:00,,0826.2,5.01,0.00,29.7,28.7,00.0,38.6,31.5,10.8,0002.3,0014.74,0006.23,0005.26
2021-09-27 04:31:00,,0826.2,5.00,0.00,29.7,28.8,00.0,38.6,31.5,10.8,0002.2,0014.95,0006.23,0005.27
2021-09-27 04:32:00,,0826.2,4.99,0.00,29.7,28.8,00.0,38.6,31.6,10.8,0001.9,0015.06,0006.23,0005.29
2021-09-27 04:33:00,,0826.3,5.00,0.00,29.8,28.9,00.0,38.7,31.6,10.8,0001.6,0015.11,0006.24,0005.29
2021-09-27 04:34:00,,0826.4,5.00,0.00,29.8,28.2,00.0,38.7,31.4,10.8,0001.6,0015.18,0006.27,0005.28
2021-09-27 04:35:00,,0826.3,5.00,0.00,29.6,26.3,00.0,38.7,31.0,11.1,0002.3,0015.54,0006.33,0005.28
2021-09-27 04:36:00,,0826.4,5.00,0.00,29.5,26.2,00.0,38.7,30.9,11.4,0002.2,0014.61,0006.34,0005.28
2021-09-27 04:37:00,,0826.4,4.99,0.00,29.4,26.5,00.0,38.6,30.9,11.5,0002.2,0013.17,0006.37,0005.30
2021-09-27 04:38:00,,0826.3,5.00,0.00,29.4,26.9,00.0,38.6,31.0,11.3,0001.9,0013.51,0006.43,0005.29
2021-09-27 04:39:00,,0826.3,4.99,0.00,29.4,27.3,00.0,38.6,31.0,11.2,0001.7,0013.17,0006.40,0005.28
2021-09-27 04:40:00,,0826.3,5.01,0.00,29.4,27.6,00.0,38.5,31.1,11.2,0001.6,0012.50,0006.41,0005.28
2021-09-27 04:41:00,,0826.3,4.99,0.00,29.4,27.9,00.0,38.5,31.2,11.1,0001.4,0012.42,0006.39,0005.27
2021-09-27 04:42:00,,0826.3,5.01,0.00,29.5,28.1,00.0,38.5,31.2,11.1,0001.5,0012.48,0006.34,0005.27
2021-09-27 04:43:00,,0826.4,5.00,0.00,29.5,28.2,00.0,38.6,31.3,11.1,0002.0,0012.62,0006.31,0005.27
2021-09-27 04:44:00,,0826.4,4.99,0.00,29.5,28.3,00.0,38.6,31.3,11.0,0002.7,0012.88,0006.31,0005.26
2021-09-27 04:45:00,,0826.4,4.99,0.00,29.6,28.4,00.0,38.6,31.4,11.0,0002.9,0013.58,0006.33,0005.29
2021-09-27 04:46:00,,0826.4,5.00,0.00,29.6,28.5,00.0,38.6,31.4,11.0,0002.7,0013.16,0006.32,0005.31
2021-09-27 04:47:00,,0826.4,5.00,0.00,29.6,28.6,00.0,38.6,31.4,10.9,0002.6,0013.09,0006.30,0005.32
2021-09-27 04:48:00,,0826.4,5.01,0.00,29.7,28.7,00.0,38.6,31.5,11.0,0002.4,0013.23,0006.27,0005.31
2021-09-27 04:49:00,,0826.4,4.99,0.00,29.7,28.7,00.0,38.6,31.5,10.9,0002.8,0014.68,0006.18,0005.29
2021-09-27 04:50:00,,0826.3,4.99,0.00,29.7,28.8,00.0,38.7,31.5,10.9,0003.1,0014.79,0006.15,0005.29
2021-09-27 04:51:00,,0826.3,5.01,0.00,29.8,28.8,00.0,38.7,31.6,10.9,0003.2,0014.91,0006.16,0005.29
2021-09-27 04:52:00,,0826.3,4.99,0.00,29.8,28.9,00.0,38.7,31.6,10.8,0003.0,0014.99,0006.19,0005.31
2021-09-27 04:53:00,,0826.2,5.01,0.00,29.8,27.5,00.0,38.7,31.2,10.7,0002.9,0014.91,0006.18,0005.31
2021-09-27 04:54:00,,0826.3,5.00,0.00,29.6,26.1,00.0,38.7,30.9,10.8,0002.6,0014.48,0006.20,0005.31
2021-09-27 04:55:00,,0826.3,5.00,0.00,29.5,26.2,00.0,38.7,30.9,10.8,0002.4,0014.30,0006.23,0005.31
2021-09-27 04:56:00,,0826.3,5.00,0.00,29.4,26.6,00.0,38.6,30.9,10.9,0002.3,0013.46,0006.18,0005.30
2021-09-27 04:57:00,,0826.2,5.00,0.00,29.4,27.0,00.0,38.6,31.0,10.9,0002.0,0014.97,0006.18,0005.29
2021-09-27 04:58:00,,0826.2,5.00,0.00,29.4,27.4,00.0,38.6,31.0,10.8,0002.3,0015.63,0006.19,0005.27
2021-09-27 04:59:00,,0826.2,4.99,0.00,29.4,27.7,00.0,38.6,31.1,10.8,0002.8,0016.64,0006.20,0005.26
